sat.trackr.live / text

‹ back to catalog

STARLINK-35757

NORAD 66270 · 2025-247F

PAYLOAD ACTIVE UNKNOWN

§ Identity

Operator
Country
US
Launch date
2025-10-31
Launch site
AFWTR
Launch vehicle
Mass (kg)
RCS (m²)

Purposes: comms

External: N2YO · Heavens-Above · Gunter

§ Orbital elements

Epoch: 2026-05-24T14:53:16.695168Z

Period
93.85 min
Inclination
53.1593°
Eccentricity
0.0001033
Mean motion
15.34400483 rev/d
Perigee alt
462.0 km
Apogee alt
463.4 km
Semi-major
6,840.8 km
B*
7.9095e-4
RAAN
197.7189°
Arg perigee
79.7884°
Mean anomaly
280.3235°
Rev number
3,272

§ Raw data

STARLINK-357571 66270U 25247F   26144.62033212  .00026442  00000+0  79095-3 0  99972 66270  53.1593 197.7189 0001033  79.7884 280.3235 15.34400483 32720

JSON: /api/v1/satellites/66270 · /tle

For live sub-satellite position, see the globe view (requires WebGL).

§ Visibility from observer

Set your observer location to see the next 7 days of passes ≥ 10°. The values pass through the URL so the page stays shareable.

No JS? Fill the form by hand. The geolocation button needs JavaScript.